Weather History for KOZW - April, 2014

Change the Weather History Date:

Friday, April 18, 2014

  Actual Average Record
Temperature  
Mean Temperature 52 °F -  
Max Temperature 59 °F 58 °F 87 °F (2004)
Min Temperature 43 °F 38 °F 26 °F (1997)
Degree Days  
Heating Degree Days 14    
Growing Degree Days 2 (Base 50)    
Moisture  
Dew Point 38 °F    
Average Humidity 63    
Maximum Humidity 97    
Minimum Humidity 34    
Precipitation  
Precipitation 0.00 in - - ()
Sea Level Pressure  
Sea Level Pressure 30.26 in    
Wind  
Wind Speed 3 mph (NW)    
Max Wind Speed 14 mph    
Max Gust Speed 20 mph    
Visibility 8 miles    
Events Rain    
Averages and records for this station are not official NWS values.
T = Trace of Precipitation, MM = Missing Value Source: NWS Daily Summary

Daily Weather History Graph

Daily Weather History Graph

Search for Another Location

Airport or City:

Trip Planner

Search our weather history database for the weather conditions in past years. The results will help you decide how hot, cold, wet, or windy it might be!

Date:

Astronomy

Apr. 18, 2014 Rise Set
Actual Time 6:49 AM EDT 8:21 PM EDT
Civil Twilight 6:20 AM EDT 8:51 PM EDT
Nautical Twilight 5:44 AM EDT 9:26 PM EDT
Astronomical Twilight 5:06 AM EDT 10:05 PM EDT
Moon No Moon Rise 9:08 AM EDT (4/18)
Length of Visible Light 14h 30m
Length of Day
13h 31m
Waning Gibbous, 87% of the Moon is Illuminated
Apr 18
Waning Gibbous
Apr 22
Last Quarter
Apr 29
New
May 6
First Quarter
May 14
Full

Hourly Weather History & Observations

Time (EDT) Temp. Windchill Dew Point Humidity Pressure Visibility Wind Dir Wind Speed Gust Speed Precip Events Conditions
12:14 AM 50.9 °F - 33.6 °F 52% 30.23 in 10.0 mi Calm Calm - N/A   Scattered Clouds
12:35 AM 52.0 °F - 33.8 °F 50% 30.23 in 10.0 mi Calm Calm - N/A   Mostly Cloudy
12:55 AM 52.3 °F - 33.4 °F 49% 30.23 in 10.0 mi Calm Calm - N/A   Mostly Cloudy
1:14 AM 49.5 °F - 34.7 °F 57% 30.23 in 10.0 mi Calm Calm - N/A   Overcast
1:35 AM 50.4 °F - 34.3 °F 54% 30.23 in 10.0 mi Calm Calm - N/A   Overcast
1:55 AM 50.2 °F - 34.7 °F 55% 30.23 in 10.0 mi WNW 3.5 mph - N/A   Overcast
2:14 AM 50.2 °F - 34.9 °F 56% 30.23 in 10.0 mi WNW 3.5 mph - N/A   Overcast
2:35 AM 49.5 °F - 35.8 °F 59% 30.23 in 10.0 mi WNW 3.5 mph - N/A   Light Drizzle
2:55 AM 49.3 °F - 36.3 °F 61% 30.23 in 10.0 mi WNW 3.5 mph - N/A Rain Light Rain
3:14 AM 48.7 °F - 37.0 °F 64% 30.23 in 10.0 mi Calm Calm - N/A   Overcast
3:35 AM 48.9 °F - 37.4 °F 64% 30.24 in 10.0 mi West 4.6 mph - N/A   Drizzle
3:55 AM 46.8 °F - 39.6 °F 76% 30.24 in 7.0 mi WNW 3.5 mph - N/A Rain Rain
4:14 AM 46.2 °F 44.1 °F 40.5 °F 80% 30.25 in 7.0 mi NW 4.6 mph - N/A   Drizzle
4:35 AM 46.4 °F 43.5 °F 40.3 °F 79% 30.24 in 7.0 mi NNW 5.8 mph - N/A   Drizzle
4:55 AM 46.0 °F 44.8 °F 40.8 °F 82% 30.24 in 7.0 mi North 3.5 mph - N/A Rain Rain
5:14 AM 45.5 °F 44.2 °F 41.4 °F 85% 30.23 in 5.0 mi North 3.5 mph - N/A Rain Light Rain
5:35 AM 45.5 °F - 41.9 °F 87% 30.23 in 7.0 mi Calm Calm - N/A   Drizzle
5:55 AM 45.0 °F - 42.6 °F 91% 30.24 in 5.0 mi Calm Calm - N/A Rain Rain
6:15 AM 44.8 °F - 43.0 °F 93% 30.24 in 4.0 mi Calm Calm - N/A Rain Light Rain
6:35 AM 44.8 °F - 43.2 °F 94% 30.25 in 3.0 mi Calm Calm - N/A Rain Light Rain
6:55 AM 44.8 °F 43.3 °F 43.5 °F 95% 30.25 in 3.0 mi SE 3.5 mph - N/A Rain Rain
7:15 AM 44.8 °F - 43.9 °F 97% 30.25 in 2.5 mi Calm Calm - N/A   Overcast
7:35 AM 44.8 °F - 43.9 °F 97% 30.26 in 2.0 mi Calm Calm - N/A   Light Drizzle
7:55 AM 45.3 °F - 44.4 °F 97% 30.27 in 2.0 mi Calm Calm - N/A   Drizzle
8:15 AM 45.5 °F - 44.6 °F 97% 30.28 in 2.0 mi Calm Calm - N/A Rain Rain
8:35 AM 46.0 °F - 45.0 °F 96% 30.27 in 1.5 mi Calm Calm - N/A Rain Light Rain
8:54 AM 45.5 °F - 44.6 °F 97% 30.27 in 1.8 mi Calm Calm - N/A   Overcast
9:15 AM 46.6 °F - 45.5 °F 96% 30.27 in 2.0 mi Calm Calm - N/A   Mist
9:35 AM 47.7 °F - 46.4 °F 95% 30.27 in 2.5 mi Calm Calm - N/A   Overcast
9:54 AM 48.0 °F - 45.9 °F 92% 30.27 in 3.0 mi WNW 3.5 mph - N/A   Overcast
10:15 AM 48.2 °F - 44.6 °F 87% 30.27 in 5.0 mi NNW 3.5 mph - N/A   Overcast
10:35 AM 48.6 °F - 44.4 °F 86% 30.27 in 5.0 mi Calm Calm - N/A   Mostly Cloudy
10:55 AM 48.9 °F - 44.4 °F 84% 30.27 in 7.0 mi Calm Calm - N/A   Mostly Cloudy
11:15 AM 50.0 °F - 43.9 °F 79% 30.26 in 7.0 mi NE 3.5 mph - N/A   Mostly Cloudy
11:35 AM 51.6 °F - 43.7 °F 74% 30.27 in 7.0 mi Calm Calm - N/A   Mostly Cloudy
11:54 AM 52.0 °F - 43.3 °F 72% 30.27 in 10.0 mi WNW 3.5 mph - N/A   Mostly Cloudy
12:15 PM 54.0 °F - 43.0 °F 66% 30.27 in 10.0 mi North 3.5 mph - N/A   Mostly Cloudy
12:35 PM 54.5 °F - 41.5 °F 62% 30.27 in 10.0 mi WNW 4.6 mph - N/A   Mostly Cloudy
12:54 PM 55.0 °F - 40.6 °F 58% 30.27 in 10.0 mi North 3.5 mph - N/A   Overcast
1:15 PM 57.6 °F - 39.9 °F 52% 30.27 in 10.0 mi NW 6.9 mph - N/A   Mostly Cloudy
1:35 PM 57.2 °F - 39.6 °F 52% 30.27 in 10.0 mi NW 9.2 mph 16.1 mph N/A   Mostly Cloudy
1:54 PM 54.9 °F - 38.1 °F 53% 30.27 in 10.0 mi Calm Calm - N/A   Mostly Cloudy
2:15 PM 57.0 °F - 37.8 °F 49% 30.27 in 10.0 mi WNW 9.2 mph - N/A   Mostly Cloudy
2:35 PM 57.0 °F - 37.6 °F 48% 30.27 in 10.0 mi WNW 5.8 mph - N/A   Mostly Cloudy
2:54 PM 57.7 °F - 37.6 °F 47% 30.27 in 10.0 mi NW 12.7 mph 16.1 mph N/A   Mostly Cloudy
3:15 PM 58.5 °F - 36.5 °F 44% 30.27 in 10.0 mi NNW 8.1 mph 16.1 mph N/A   Mostly Cloudy
3:34 PM 58.3 °F - 34.7 °F 41% 30.26 in 10.0 mi WNW 3.5 mph - N/A   Scattered Clouds
3:55 PM 57.6 °F - 34.5 °F 42% 30.25 in 10.0 mi Calm Calm - N/A   Scattered Clouds
4:15 PM 59.5 °F - 32.5 °F 36% 30.25 in 10.0 mi WNW 4.6 mph - N/A   Scattered Clouds
4:34 PM 58.8 °F - 32.9 °F 38% 30.24 in 10.0 mi WSW 8.1 mph - N/A   Scattered Clouds
4:55 PM 57.7 °F - 34.2 °F 41% 30.24 in 10.0 mi NW 5.8 mph - N/A   Scattered Clouds
5:15 PM 59.0 °F - 33.8 °F 39% 30.23 in 10.0 mi WNW 10.4 mph - N/A   Scattered Clouds
5:35 PM 59.0 °F - 32.7 °F 37% 30.23 in 10.0 mi West 9.2 mph - N/A   Scattered Clouds
5:55 PM 59.7 °F - 32.0 °F 35% 30.23 in 10.0 mi WNW 5.8 mph - N/A   Scattered Clouds
6:15 PM 59.7 °F - 31.5 °F 34% 30.23 in 10.0 mi West 13.8 mph 19.6 mph N/A   Scattered Clouds
6:35 PM 58.3 °F - 32.9 °F 38% 30.23 in 10.0 mi NW 6.9 mph - N/A   Scattered Clouds
6:55 PM 58.5 °F - 33.3 °F 39% 30.23 in 10.0 mi WNW 9.2 mph - N/A   Clear
7:14 PM 57.4 °F - 33.3 °F 40% 30.24 in 10.0 mi NW 5.8 mph - N/A   Clear
7:35 PM 56.7 °F - 32.0 °F 39% 30.24 in 10.0 mi WNW 8.1 mph - N/A   Scattered Clouds
7:55 PM 55.2 °F - 32.9 °F 43% 30.24 in 10.0 mi NW 9.2 mph - N/A   Clear
8:14 PM 54.5 °F - 32.9 °F 44% 30.24 in 10.0 mi NW 6.9 mph - N/A   Clear
8:35 PM 52.5 °F - 32.4 °F 46% 30.25 in 10.0 mi NW 4.6 mph - N/A   Clear
8:55 PM 51.4 °F - 32.4 °F 48% 30.25 in 10.0 mi NW 5.8 mph - N/A   Clear
9:14 PM 51.8 °F - 32.0 °F 47% 30.27 in 10.0 mi NNW 5.8 mph - N/A   Clear
9:35 PM 50.9 °F - 32.0 °F 48% 30.28 in 10.0 mi NNW 11.5 mph 16.1 mph N/A   Clear
9:55 PM 50.2 °F - 32.7 °F 51% 30.29 in 10.0 mi North 8.1 mph - N/A   Clear
10:14 PM 48.4 °F - 33.1 °F 56% 30.31 in 10.0 mi North 9.2 mph 18.4 mph N/A   Clear
10:35 PM 46.9 °F - 33.3 °F 59% 30.31 in 10.0 mi North 5.8 mph - N/A   Clear
10:55 PM 46.2 °F 44.1 °F 33.1 °F 60% 30.32 in 10.0 mi North 4.6 mph - N/A   Clear
11:14 PM 45.3 °F 43.0 °F 33.1 °F 62% 30.32 in 10.0 mi NNE 4.6 mph - N/A   Clear
11:35 PM 44.2 °F 41.8 °F 33.8 °F 67% 30.32 in 10.0 mi NNE 4.6 mph - N/A   Clear
11:55 PM 43.3 °F 38.6 °F 36.1 °F 76% 30.34 in 10.0 mi NNE 8.1 mph - N/A   Scattered Clouds